| time (UTC) | temp F | wind direction | speed MPH | gust MPH | rain 1hr in | rain 24hr in | rain mn in | humidity % | barometer mb |
| 20260504045144 | 41 | 273 | 0.0 | 0.0 | 0.00 | 0.00 | 0.00 | 85 | 1015.0 |
| 20260504044643 | 41 | 274 | 0.0 | 0.0 | 0.00 | 0.00 | 0.00 | 84 | 1015.0 |
| 20260504044139 | 41 | 273 | 0.0 | 0.0 | 0.00 | 0.00 | 0.00 | 84 | 1015.0 |
| 20260504043635 | 42 | 273 | 0.0 | 0.0 | 0.00 | 0.00 | 0.00 | 84 | 1015.0 |
| 20260504043135 | 42 | 273 | 0.0 | 0.0 | 0.00 | 0.00 | 0.00 | 84 | 1015.0 |
| 20260504042635 | 42 | 273 | 0.0 | 0.0 | 0.00 | 0.00 | 0.00 | 83 | 1015.0 |
| 20260504042132 | 42 | 273 | 0.0 | 0.0 | 0.00 | 0.00 | 0.00 | 83 | 1014.7 |
| 20260504041638 | 42 | 273 | 0.0 | 0.0 | 0.00 | 0.00 | 0.00 | 83 | 1014.6 |
| 20260504041633 | 42 | 274 | 0.0 | 0.0 | 0.00 | 0.00 | 0.00 | 84 | 1014.6 |
| 20260504040631 | 42 | 274 | 0.0 | 0.0 | 0.00 | 0.00 | 0.00 | 82 | 1014.8 |
| 20260504040131 | 42 | 273 | 0.0 | 0.0 | 0.00 | 0.00 | 0.00 | 82 | 1014.7 |
| 20260504035901 | 42 | 273 | 0.0 | 0.0 | 0.00 | 0.00 | 0.00 | 82 | 1014.6 |
| 20260504035130 | 42 | 273 | 0.0 | 0.0 | 0.00 | 0.00 | 0.00 | 82 | 1014.6 |
| 20260504034629 | 43 | 273 | 0.0 | 0.0 | 0.00 | 0.00 | 0.00 | 82 | 1014.6 |
| 20260504034130 | 43 | 274 | 0.0 | 0.0 | 0.00 | 0.00 | 0.00 | 82 | 1014.5 |
| 20260504033632 | 43 | 273 | 0.0 | 0.0 | 0.00 | 0.00 | 0.00 | 81 | 1014.4 |
| 20260504033126 | 43 | 274 | 0.0 | 0.0 | 0.00 | 0.00 | 0.00 | 81 | 1014.4 |
| 20260504032626 | 43 | 273 | 0.0 | 0.0 | 0.00 | 0.00 | 0.00 | 80 | 1014.3 |
| 20260504032123 | 43 | 274 | 0.0 | 0.0 | 0.00 | 0.00 | 0.00 | 80 | 1014.3 |
| 20260504031626 | 44 | 274 | 0.0 | 0.0 | 0.00 | 0.00 | 0.00 | 80 | 1014.3 |
| 20260504031124 | 44 | 274 | 0.0 | 0.0 | 0.00 | 0.00 | 0.00 | 79 | 1014.2 |
| 20260504030624 | 44 | 273 | 0.0 | 0.0 | 0.00 | 0.00 | 0.00 | 78 | 1014.2 |
| 20260504030122 | 44 | 273 | 0.0 | 0.0 | 0.00 | 0.00 | 0.00 | 77 | 1014.3 |
| 20260504025620 | 44 | 273 | 0.0 | 0.0 | 0.00 | 0.00 | 0.00 | 76 | 1014.3 |
| 20260504025118 | 45 | 274 | 0.0 | 0.0 | 0.00 | 0.00 | 0.00 | 76 | 1014.3 |
| 20260504024618 | 45 | 273 | 0.0 | 0.0 | 0.00 | 0.00 | 0.00 | 75 | 1014.3 |
| 20260504024115 | 45 | 274 | 0.0 | 0.0 | 0.00 | 0.00 | 0.00 | 75 | 1014.2 |
| 20260504023615 | 46 | 273 | 0.0 | 0.0 | 0.00 | 0.00 | 0.00 | 73 | 1014.1 |
| 20260504023350 | 46 | 273 | 0.0 | 0.0 | 0.00 | 0.00 | 0.00 | 71 | 1014.2 |
| 20260504022613 | 46 | 273 | 0.0 | 0.0 | 0.00 | 0.00 | 0.00 | 71 | 1014.2 |
| 20260504022342 | 46 | 273 | 0.0 | 0.0 | 0.00 | 0.00 | 0.00 | 70 | 1014.2 |
| 20260504021604 | 47 | 274 | 0.0 | 0.0 | 0.00 | 0.00 | 0.00 | 71 | 1014.1 |
| 20260504021104 | 47 | 273 | 0.0 | 0.0 | 0.00 | 0.00 | 0.00 | 70 | 1014.2 |
| 20260504020837 | 47 | 273 | 0.0 | 0.0 | 0.00 | 0.00 | 0.00 | 69 | 1014.2 |
| 20260504020106 | 47 | 274 | 0.0 | 0.0 | 0.00 | 0.00 | 0.00 | 68 | 1014.2 |
| 20260504015606 | 47 | 274 | 0.0 | 0.0 | 0.00 | 0.00 | 0.00 | 66 | 1014.1 |
| 20260504015106 | 48 | 274 | 0.0 | 0.0 | 0.00 | 0.00 | 0.00 | 67 | 1014.1 |
| 20260504014604 | 48 | 273 | 0.0 | 0.0 | 0.00 | 0.00 | 0.00 | 65 | 1014.1 |
| 20260504014105 | 48 | 273 | 0.0 | 0.0 | 0.00 | 0.00 | 0.00 | 64 | 1014.0 |
| 20260504013605 | 49 | 274 | 0.0 | 0.0 | 0.00 | 0.00 | 0.00 | 63 | 1014.1 |
| 20260504013105 | 49 | 274 | 0.0 | 0.0 | 0.00 | 0.00 | 0.00 | 63 | 1014.0 |
| 20260504012842 | 49 | 274 | 0.0 | 0.0 | 0.00 | 0.00 | 0.00 | 63 | 1014.0 |
| 20260504012100 | 50 | 273 | 0.0 | 0.0 | 0.00 | 0.00 | 0.00 | 63 | 1013.8 |
| 20260504011601 | 50 | 274 | 0.0 | 0.0 | 0.00 | 0.00 | 0.00 | 62 | 1013.9 |
| 20260504011102 | 50 | 274 | 0.0 | 0.0 | 0.00 | 0.00 | 0.00 | 60 | 1013.8 |
| 20260504010833 | 51 | 274 | 0.0 | 0.0 | 0.00 | 0.00 | 0.00 | 61 | 1013.7 |
| 20260504010101 | 51 | 274 | 0.0 | 0.0 | 0.00 | 0.00 | 0.00 | 60 | 1013.8 |
| 20260504005602 | 51 | 274 | 0.0 | 0.0 | 0.00 | 0.00 | 0.00 | 59 | 1013.7 |
| 20260504005058 | 52 | 274 | 0.0 | 0.0 | 0.00 | 0.00 | 0.00 | 52 | 1013.6 |
| 20260504004558 | 52 | 273 | 0.0 | 0.0 | 0.00 | 0.00 | 0.00 | 51 | 1013.6 |
| 20260504004328 | 53 | 274 | 0.0 | 0.0 | 0.00 | 0.00 | 0.00 | 51 | 1013.6 |
| 20260504003557 | 53 | 274 | 0.0 | 0.0 | 0.00 | 0.00 | 0.00 | 50 | 1013.6 |
| 20260504003057 | 54 | 274 | 0.0 | 0.0 | 0.00 | 0.00 | 0.00 | 47 | 1013.4 |
| 20260504002556 | 55 | 274 | 0.0 | 0.0 | 0.00 | 0.00 | 0.00 | 46 | 1013.4 |
| 20260504002058 | 56 | 274 | 0.0 | 0.0 | 0.00 | 0.00 | 0.00 | 45 | 1013.3 |
| 20260504001558 | 56 | 274 | 0.0 | 0.0 | 0.00 | 0.00 | 0.00 | 42 | 1013.2 |
| 20260504001104 | 57 | 274 | 0.0 | 0.0 | 0.00 | 0.00 | 0.00 | 39 | 1013.2 |
| 20260504001059 | 57 | 274 | 0.0 | 0.0 | 0.00 | 0.00 | 0.00 | 41 | 1013.2 |
| 20260504000050 | 58 | 274 | 0.0 | 0.0 | 0.00 | 0.00 | 0.00 | 38 | 1013.2 |
| 20260503235823 | 58 | 274 | 0.0 | 0.0 | 0.00 | 0.00 | 0.00 | 37 | 1013.1 |
| 20260503235321 | 59 | 274 | 0.0 | 0.0 | 0.00 | 0.00 | 0.00 | 36 | 1013.0 |
| 20260503234550 | 59 | 274 | 0.0 | 0.0 | 0.00 | 0.00 | 0.00 | 35 | 1013.0 |
| 20260503234321 | 59 | 274 | 0.0 | 1.0 | 0.00 | 0.00 | 0.00 | 34 | 1012.9 |
| 20260503233549 | 59 | 274 | 0.0 | 1.0 | 0.00 | 0.00 | 0.00 | 34 | 1012.8 |
| 20260503233049 | 60 | 296 | 0.0 | 7.0 | 0.00 | 0.00 | 0.00 | 34 | 1012.8 |
| 20260503232545 | 60 | 258 | 0.0 | 7.0 | 0.00 | 0.00 | 0.00 | 33 | 1012.7 |
| 20260503232046 | 60 | 242 | 0.0 | 2.0 | 0.00 | 0.00 | 0.00 | 32 | 1012.8 |
| 20260503231543 | 61 | 234 | 0.0 | 2.0 | 0.00 | 0.00 | 0.00 | 32 | 1012.8 |
| 20260503231043 | 61 | 299 | 0.0 | 5.0 | 0.00 | 0.00 | 0.00 | 32 | 1012.9 |
| 20260503230543 | 62 | 330 | 0.0 | 5.0 | 0.00 | 0.00 | 0.00 | 30 | 1012.8 |
| 20260503230314 | 62 | 248 | 0.0 | 1.0 | 0.00 | 0.00 | 0.00 | 31 | 1012.9 |
| 20260503225539 | 62 | 292 | 0.0 | 3.0 | 0.00 | 0.00 | 0.00 | 30 | 1012.9 |
| 20260503225039 | 61 | 240 | 1.0 | 13.0 | 0.00 | 0.00 | 0.00 | 30 | 1012.9 |
| 20260503224538 | 61 | 290 | 2.0 | 13.0 | 0.00 | 0.00 | 0.00 | 30 | 1012.9 |
| 20260503224040 | 61 | 304 | 1.0 | 9.0 | 0.00 | 0.00 | 0.00 | 30 | 1012.8 |
| 20260503223537 | 61 | 248 | 0.0 | 4.0 | 0.00 | 0.00 | 0.00 | 31 | 1012.7 |
| 20260503223040 | 62 | 315 | 0.0 | 0.0 | 0.00 | 0.00 | 0.00 | 30 | 1012.7 |
| 20260503222534 | 62 | 323 | 0.0 | 0.0 | 0.00 | 0.00 | 0.00 | 31 | 1012.7 |
| 20260503222035 | 61 | 250 | 0.0 | 15.0 | 0.00 | 0.00 | 0.00 | 30 | 1012.7 |
| 20260503221535 | 61 | 323 | 0.0 | 15.0 | 0.00 | 0.00 | 0.00 | 31 | 1012.8 |
| 20260503221033 | 61 | 229 | 1.0 | 15.0 | 0.00 | 0.00 | 0.00 | 30 | 1012.9 |
| 20260503220531 | 62 | 269 | 1.0 | 15.0 | 0.00 | 0.00 | 0.00 | 30 | 1012.8 |
| 20260503220030 | 62 | 266 | 0.0 | 3.0 | 0.00 | 0.00 | 0.00 | 29 | 1012.9 |
| 20260503215527 | 62 | 252 | 0.0 | 7.0 | 0.00 | 0.00 | 0.00 | 30 | 1012.9 |
| 20260503215027 | 62 | 240 | 0.0 | 7.0 | 0.00 | 0.00 | 0.00 | 32 | 1012.8 |
| 20260503214529 | 61 | 269 | 0.0 | 13.0 | 0.00 | 0.00 | 0.00 | 30 | 1012.7 |
| 20260503214031 | 61 | 267 | 0.0 | 9.0 | 0.00 | 0.00 | 0.00 | 32 | 1012.7 |
| 20260503214027 | 61 | 324 | 0.0 | 13.0 | 0.00 | 0.00 | 0.00 | 30 | 1012.7 |
| 20260503213255 | 61 | 297 | 1.0 | 13.0 | 0.00 | 0.00 | 0.00 | 29 | 1012.7 |
| 20260503212521 | 61 | 227 | 1.0 | 13.0 | 0.00 | 0.00 | 0.00 | 30 | 1012.7 |
| 20260503212020 | 61 | 285 | 2.0 | 13.0 | 0.00 | 0.00 | 0.00 | 30 | 1012.7 |
| 20260503211520 | 61 | 238 | 1.0 | 13.0 | 0.00 | 0.00 | 0.00 | 29 | 1012.8 |
| 20260503211021 | 61 | 300 | 1.0 | 10.0 | 0.00 | 0.00 | 0.00 | 30 | 1012.8 |
| 20260503210520 | 61 | 329 | 3.0 | 15.0 | 0.00 | 0.00 | 0.00 | 30 | 1012.8 |
| 20260503210025 | 61 | 263 | 4.0 | 15.0 | 0.00 | 0.00 | 0.00 | 31 | 1012.7 |
| 20260503210017 | 61 | 284 | 3.0 | 14.0 | 0.00 | 0.00 | 0.00 | 31 | 1012.9 |
| 20260503205013 | 60 | 236 | 4.0 | 12.0 | 0.00 | 0.00 | 0.00 | 31 | 1012.9 |
| 20260503204513 | 61 | 242 | 5.0 | 13.0 | 0.00 | 0.00 | 0.00 | 29 | 1012.9 |
| 20260503204245 | 61 | 259 | 3.0 | 13.0 | 0.00 | 0.00 | 0.00 | 32 | 1012.9 |
| 20260503203513 | 60 | 288 | 1.0 | 10.0 | 0.00 | 0.00 | 0.00 | 31 | 1012.9 |
| 20260503203013 | 60 | 247 | 3.0 | 16.0 | 0.00 | 0.00 | 0.00 | 31 | 1013.0 |
| 20260503202507 | 60 | 267 | 3.0 | 16.0 | 0.00 | 0.00 | 0.00 | 32 | 1013.0 |
| 20260503202007 | 60 | 315 | 2.0 | 13.0 | 0.00 | 0.00 | 0.00 | 32 | 1013.0 |
| 20260503201510 | 60 | 314 | 3.0 | 13.0 | 0.00 | 0.00 | 0.00 | 33 | 1013.1 |
| 20260503201007 | 60 | 248 | 4.0 | 17.0 | 0.00 | 0.00 | 0.00 | 33 | 1013.2 |
| 20260503200507 | 60 | 291 | 5.0 | 17.0 | 0.00 | 0.00 | 0.00 | 32 | 1013.4 |
| 20260503200007 | 60 | 250 | 5.0 | 20.0 | 0.00 | 0.00 | 0.00 | 32 | 1013.3 |
| 20260503195502 | 61 | 263 | 3.0 | 20.0 | 0.00 | 0.00 | 0.00 | 32 | 1013.4 |
| 20260503195233 | 60 | 290 | 3.0 | 16.0 | 0.00 | 0.00 | 0.00 | 33 | 1013.4 |
| 20260503194502 | 60 | 300 | 5.0 | 16.0 | 0.00 | 0.00 | 0.00 | 32 | 1013.5 |
| 20260503194003 | 60 | 254 | 4.0 | 21.0 | 0.00 | 0.00 | 0.00 | 32 | 1013.5 |
| 20260503193501 | 60 | 227 | 3.0 | 21.0 | 0.00 | 0.00 | 0.00 | 32 | 1013.7 |
| 20260503193004 | 59 | 323 | 3.0 | 15.0 | 0.00 | 0.00 | 0.00 | 35 | 1013.6 |
| 20260503192455 | 59 | 248 | 5.0 | 24.0 | 0.00 | 0.00 | 0.00 | 34 | 1013.7 |
| 20260503191955 | 59 | 265 | 7.0 | 24.0 | 0.00 | 0.00 | 0.00 | 33 | 1013.8 |
| 20260503191456 | 59 | 287 | 5.0 | 16.0 | 0.00 | 0.00 | 0.00 | 32 | 1013.7 |
| 20260503190956 | 59 | 301 | 2.0 | 15.0 | 0.00 | 0.00 | 0.00 | 33 | 1013.7 |
| 20260503190455 | 59 | 294 | 4.0 | 15.0 | 0.00 | 0.00 | 0.00 | 34 | 1013.8 |
| 20260503185955 | 59 | 333 | 5.0 | 18.0 | 0.00 | 0.00 | 0.00 | 33 | 1013.9 |
| 20260503185449 | 59 | 289 | 3.0 | 18.0 | 0.00 | 0.00 | 0.00 | 34 | 1014.1 |
| 20260503184951 | 59 | 252 | 2.0 | 17.0 | 0.00 | 0.00 | 0.00 | 34 | 1014.0 |
| 20260503184727 | 58 | 303 | 3.0 | 13.0 | 0.00 | 0.00 | 0.00 | 34 | 1014.1 |
| 20260503184451 | 59 | 335 | 2.0 | 17.0 | 0.00 | 0.00 | 0.00 | 34 | 1014.1 |
| 20260503183448 | 59 | 221 | 3.0 | 18.0 | 0.00 | 0.00 | 0.00 | 33 | 1014.2 |
| 20260503182949 | 58 | 236 | 4.0 | 18.0 | 0.00 | 0.00 | 0.00 | 34 | 1014.2 |
| 20260503182446 | 58 | 0 | 4.0 | 17.0 | 0.00 | 0.00 | 0.00 | 34 | 1014.4 |
| 20260503181947 | 58 | 301 | 3.0 | 18.0 | 0.00 | 0.00 | 0.00 | 35 | 1014.3 |
| 20260503181447 | 58 | 254 | 2.0 | 18.0 | 0.00 | 0.00 | 0.00 | 33 | 1014.3 |
| 20260503180945 | 58 | 224 | 3.0 | 16.0 | 0.00 | 0.00 | 0.00 | 33 | 1014.3 |
| 20260503180446 | 58 | 340 | 5.0 | 20.0 | 0.00 | 0.00 | 0.00 | 32 | 1014.3 |
| 20260503175944 | 58 | 300 | 6.0 | 20.0 | 0.00 | 0.00 | 0.00 | 35 | 1014.4 |
| 20260503175447 | 58 | 213 | 5.0 | 18.0 | 0.00 | 0.00 | 0.00 | 32 | 1014.5 |
| 20260503175220 | 58 | 276 | 2.0 | 18.0 | 0.00 | 0.00 | 0.00 | 33 | 1014.4 |
| 20260503174436 | 58 | 246 | 1.0 | 13.0 | 0.00 | 0.00 | 0.00 | 35 | 1014.4 |
| 20260503174209 | 56 | 278 | 3.0 | 16.0 | 0.00 | 0.00 | 0.00 | 34 | 1014.4 |
| 20260503173439 | 56 | 281 | 6.0 | 16.0 | 0.00 | 0.00 | 0.00 | 34 | 1014.6 |
| 20260503172931 | 56 | 263 | 7.0 | 20.0 | 0.00 | 0.00 | 0.00 | 34 | 1014.6 |
| 20260503172425 | 57 | 327 | 8.0 | 20.0 | 0.00 | 0.00 | 0.00 | 35 | 1014.7 |
| 20260503171927 | 56 | 256 | 7.0 | 18.0 | 0.00 | 0.00 | 0.00 | 35 | 1014.6 |
| 20260503171659 | 57 | 258 | 4.0 | 16.0 | 0.00 | 0.00 | 0.00 | 36 | 1014.6 |
| 20260503170927 | 57 | 278 | 1.0 | 11.0 | 0.00 | 0.00 | 0.00 | 37 | 1014.7 |
| 20260503170426 | 56 | 298 | 3.0 | 15.0 | 0.00 | 0.00 | 0.00 | 37 | 1014.7 |
| 20260503150912 | 52 | 355 | 5.0 | 16.0 | 0.00 | 0.00 | 0.00 | 40 | 1015.4 |
| 20260503150412 | 52 | 340 | 5.0 | 16.0 | 0.00 | 0.00 | 0.00 | 39 | 1015.5 |
| 20260503150408 | 52 | 292 | 5.0 | 16.0 | 0.00 | 0.00 | 0.00 | 39 | 1015.5 |
| 20260503131348 | 49 | 300 | 5.0 | 18.0 | 0.00 | 0.00 | 0.00 | 49 | 1015.5 |
| 20260503130849 | 49 | 288 | 6.0 | 16.0 | 0.00 | 0.00 | 0.00 | 51 | 1015.5 |
| 20260503130348 | 48 | 16 | 5.0 | 15.0 | 0.00 | 0.00 | 0.00 | 51 | 1015.5 |
| 20260503110826 | 42 | 238 | 0.0 | 4.0 | 0.00 | 0.00 | 0.00 | 65 | 1014.5 |
| 20260503110327 | 42 | 246 | 0.0 | 4.0 | 0.00 | 0.00 | 0.00 | 66 | 1014.4 |
| 20260503090254 | 42 | 312 | 0.0 | 0.0 | 0.00 | 0.00 | 0.00 | 70 | 1013.0 |
| 20260503081252 | 43 | 208 | 0.0 | 5.0 | 0.00 | 0.00 | 0.00 | 68 | 1012.6 |
| 20260503080747 | 43 | 276 | 0.0 | 5.0 | 0.00 | 0.00 | 0.00 | 68 | 1012.5 |
| 20260503080246 | 44 | 294 | 0.0 | 4.0 | 0.00 | 0.00 | 0.00 | 67 | 1012.5 |
| 20260503072746 | 44 | 258 | 0.0 | 6.0 | 0.00 | 0.00 | 0.00 | 68 | 1012.0 |
| 20260503072243 | 44 | 307 | 0.0 | 7.0 | 0.00 | 0.00 | 0.00 | 68 | 1012.0 |
| 20260503071745 | 44 | 317 | 0.0 | 7.0 | 0.00 | 0.00 | 0.00 | 68 | 1012.0 |
| 20260503071242 | 44 | 330 | 0.0 | 0.0 | 0.00 | 0.00 | 0.00 | 68 | 1012.0 |
| 20260503070740 | 44 | 355 | 0.0 | 3.0 | 0.00 | 0.00 | 0.00 | 69 | 1011.9 |
| 20260503070243 | 44 | 355 | 0.0 | 8.0 | 0.00 | 0.00 | 0.00 | 69 | 1012.0 |
| 20260503070239 | 44 | 291 | 0.0 | 3.0 | 0.00 | 0.00 | 0.00 | 69 | 1012.0 |
| 20260503060226 | 44 | 257 | 0.0 | 1.0 | 0.00 | 0.00 | 0.00 | 70 | 1012.1 |
| 20260503054721 | 44 | 254 | 0.0 | 0.0 | 0.00 | 0.00 | 0.00 | 71 | 1012.2 |
| 20260503054225 | 44 | 254 | 0.0 | 0.0 | 0.00 | 0.00 | 0.00 | 71 | 1012.2 |
| 20260503053717 | 44 | 254 | 0.0 | 0.0 | 0.00 | 0.00 | 0.00 | 71 | 1012.2 |
| 20260503053217 | 45 | 254 | 0.0 | 0.0 | 0.00 | 0.00 | 0.00 | 70 | 1012.1 |
| 20260503052717 | 45 | 254 | 0.0 | 0.0 | 0.00 | 0.00 | 0.00 | 68 | 1012.1 |
| 20260503052217 | 45 | 254 | 0.0 | 0.0 | 0.00 | 0.00 | 0.00 | 68 | 1012.2 |
| 20260503051717 | 45 | 254 | 0.0 | 0.0 | 0.00 | 0.00 | 0.00 | 67 | 1012.2 |
| 20260503051215 | 45 | 254 | 0.0 | 0.0 | 0.00 | 0.00 | 0.00 | 68 | 1012.1 |
| 20260503050713 | 45 | 255 | 0.0 | 0.0 | 0.00 | 0.00 | 0.00 | 67 | 1012.2 |
| 20260503050212 | 45 | 322 | 0.0 | 0.0 | 0.00 | 0.00 | 0.00 | 67 | 1012.1 |
| 20260503045713 | 46 | 322 | 0.0 | 0.0 | 0.00 | 0.00 | 0.00 | 66 | 1012.1 |